Temp
69 68 69 70 71 67 66 65 66 65 64 62 62 60 60 59 58 58 58 58 58 58
66 66 68 70 69 69 68 68 66 64 62 62 62 60 59 58 58 58 58 58 58 58
66 67 67 68 67 68 68 67 63 62 61 60 60 60 59 58 58 57 58 58 58 58
65 66 66 66 66 67 67 66 64 62 61 60 59 59 58 58 57 57 57 58 57 57
63 64 65 64 65 65 66 66 64 62 60 59 58 58 57 56 57 57 56 57 57 56
60 62 61 62 64 65 65 65 65 63 61 59 58 57 57 57 56 56 57 57 56 57
58 60 61 61 63 64 64 65 65 62 60 58 57 57 56 56 55 56 56 56 57 57
59 60 61 60 62 63 62 63 63 62 60 59 58 57 56 56 55 55 54 55 55 56
58 58 58 59 60 61 60 61 62 62 59 58 59 46 46 52 55 54 54 53 53 53
57 57 58 59 59 59 59 60 60 60 60 58 59 45 45 46 56 54 53 53 53 52
56 56 58 58 58 58 59 58 59 59 59 58 53 42 43 43 56 54 54 54 54 53
44 55 56 57 57 58 58 57 55 52 49 48 41 38 40 45 53 53 52 51 44 51
39 43 47 49 51 51 52 46 41 37 37 36 39 37 39 43 52 44 38 36 36 35
35 37 39 40 42 42 39 36 33 32 32 33 34 35 38 40 47 38 34 33 33 33
MSLP
1002.59 1003.27 1003.58 1003.76 1003.53 1004.12 1004.87 1005.75 1006.40 1007.04 1007.69 1008.48 1009.18 1009.77 1010.43 1010.99 1011.48 1011.99 1012.48 1013.00 1013.42 1013.88
1001.97 1002.75 1003.21 1003.10 1003.11 1003.31 1004.04 1005.07 1005.81 1006.60 1007.36 1007.96 1008.63 1009.33 1009.96 1010.54 1011.05 1011.59 1012.04 1012.46 1012.91 1013.52
1001.49 1001.98 1002.74 1002.86 1002.84 1002.87 1003.40 1004.53 1005.54 1006.36 1007.12 1007.58 1008.21 1008.82 1009.42 1010.11 1010.70 1011.21 1011.69 1012.18 1012.71 1013.09
1000.92 1001.35 1002.18 1002.46 1002.41 1002.47 1003.28 1004.17 1005.09 1005.98 1006.63 1007.06 1007.74 1008.32 1008.97 1009.68 1010.23 1010.74 1011.29 1011.87 1012.28 1012.79
1000.76 1001.20 1001.91 1002.09 1002.11 1002.24 1003.02 1004.11 1004.96 1005.74 1006.37 1006.87 1007.32 1007.93 1008.53 1009.19 1009.80 1010.25 1010.81 1011.30 1011.92 1012.50
1000.78 1001.17 1001.57 1001.79 1001.79 1002.20 1003.07 1004.03 1004.52 1005.22 1005.97 1006.49 1006.99 1007.64 1008.34 1008.87 1009.44 1009.81 1010.20 1010.80 1011.32 1011.98
1000.96 1001.13 1001.31 1001.42 1001.70 1002.21 1002.98 1003.79 1004.23 1004.83 1005.72 1006.19 1006.71 1007.28 1008.12 1008.72 1009.24 1009.63 1010.02 1010.47 1010.84 1011.32
1000.86 1001.05 1001.19 1001.29 1001.60 1002.29 1003.19 1003.74 1004.45 1004.85 1005.61 1006.00 1006.44 1007.06 1007.88 1008.55 1009.04 1009.47 1009.89 1010.22 1010.64 1011.07
1000.77 1000.90 1000.96 1001.17 1001.68 1002.26 1003.27 1003.74 1004.40 1004.80 1005.44 1005.86 1006.18 1007.00 1007.71 1008.38 1008.83 1009.38 1009.79 1010.20 1010.61 1011.02
1000.73 1000.81 1000.92 1001.15 1001.69 1002.38 1003.33 1003.85 1004.38 1004.92 1005.20 1005.63 1005.93 1006.97 1007.70 1008.27 1008.73 1009.28 1009.69 1010.12 1010.64 1011.15
1000.75 1000.80 1000.89 1001.36 1001.78 1002.66 1003.46 1004.01 1004.55 1005.11 1005.33 1005.85 1006.56 1007.25 1007.88 1008.36 1008.72 1009.23 1009.70 1010.07 1010.55 1011.06
1002.12 1001.05 1001.06 1001.48 1002.05 1002.82 1003.57 1004.29 1004.83 1005.55 1006.01 1006.75 1007.95 1008.24 1008.10 1008.54 1008.85 1009.32 1009.81 1010.25 1010.96 1011.05
1003.66 1002.63 1002.05 1002.14 1002.56 1003.18 1003.90 1005.16 1006.17 1007.22 1007.99 1008.48 1008.68 1009.07 1008.80 1008.85 1008.95 1009.79 1010.76 1011.49 1011.83 1011.75
1004.97 1004.55 1003.76 1003.65 1003.83 1004.09 1004.95 1006.33 1007.45 1008.27 1009.23 1009.42 1009.71 1009.85 1009.20 1009.12 1009.21 1010.31 1011.48 1012.34 1012.88 1013.12
Wind_Speed
6 7 10 13 9 10 10 9 10 11 11 13 11 11 10 9 9 11 10 12 10 6
8 10 11 12 6 9 9 9 12 12 12 11 11 11 11 8 10 10 11 11 12 10
11 11 13 8 7 9 10 9 12 12 12 11 11 11 11 8 10 11 9 8 12 10
10 10 11 8 7 7 9 8 11 12 12 12 12 11 11 10 11 13 12 11 10 12
8 9 10 5 7 8 9 8 12 11 11 10 11 11 11 11 10 13 13 12 12 10
7 9 8 5 7 8 8 9 9 13 12 11 11 10 10 11 11 11 12 13 12 14
9 10 9 8 8 9 7 9 9 9 10 10 10 10 9 9 9 9 8 8 13 14
9 10 9 11 10 9 7 8 7 9 9 10 9 8 10 9 9 9 8 7 7 8
8 7 9 10 10 10 9 9 8 11 10 10 7 13 13 10 8 8 8 7 6 6
9 7 6 9 11 9 9 9 9 9 9 8 7 15 13 11 7 8 7 7 7 5
8 7 8 9 10 10 7 6 9 9 8 6 6 10 10 10 6 6 7 7 8 8
12 6 8 11 11 9 9 7 6 7 10 11 10 12 6 9 5 5 4 5 7 1
12 10 7 6 6 4 10 11 10 12 11 14 10 14 8 4 4 6 6 6 7 13
13 12 9 8 7 10 13 12 12 14 12 14 14 13 10 4 4 7 7 6 6 7
Wind_Direction
174 197 217 239 201 171 175 187 183 186 176 174 168 176 182 183 185 188 191 193 187 176
170 201 236 237 198 169 162 178 183 175 181 174 174 173 175 181 186 187 189 193 188 187
190 201 226 242 197 181 164 174 164 173 178 169 173 174 170 176 182 183 185 179 180 164
188 197 221 231 195 162 151 150 162 174 179 172 173 177 173 177 179 184 184 183 179 178
176 183 219 216 191 140 147 158 169 175 174 171 170 172 175 173 177 183 185 186 191 177
177 195 204 202 162 139 152 184 183 172 174 171 170 171 180 179 180 184 187 189 181 187
194 208 207 176 159 154 153 181 182 148 158 161 163 163 175 179 179 183 183 185 194 187
203 208 201 166 152 162 161 163 172 155 155 153 157 161 170 183 179 181 177 173 178 185
190 175 166 158 151 162 158 155 173 172 159 156 156 153 160 167 165 173 176 174 164 158
184 177 169 156 153 157 166 156 162 167 159 151 144 156 166 160 162 164 167 166 170 163
175 180 168 160 150 159 162 164 160 162 154 141 89 150 153 169 152 165 176 175 174 174
348 188 168 164 160 156 156 154 78 49 50 93 61 31 152 161 172 150 120 83 55 193
1 11 61 71 108 66 93 88 86 71 56 47 58 24 40 189 142 100 92 60 39 28
20 14 34 57 68 98 93 89 80 79 60 55 39 27 32 114 88 119 95 70 53 43